DECAYED
Showing default

FLOCK 4X 29, 51011 (Decayed)

Orbit data source: Space-Track

FLOCK 4X 29, 51011 was a payload satellite owned by Planet (US) in LEO that was launched on Thu, 13 Jan 2022 UTC via an FALCON 9 launch vehicle from the Air Force Eastern Test Range (AFETR). Payload-class satellites include a variety of spacecraft equipped with specific instruments for various scientific and technological missions. These include communications satellites like Starlink; space stations such as the ISS; scientific satellites like the Hubble; Earth observation satellites from companies like Planet Labs, Umbra, and HawkEye 360; GPS; miniature CubeSats for education and research; and military/defense satellites.

Not visible in the next 10 days
Identifier
51011, 2022-002AD
Orbit
Decayed
Last TLE update
9 months ago
Origin
Manufacturer
Planet
Mission
Decayed Commercial Imaging
Bus & Motor
CUBESAT 3U, Unknown motor
Mass
5.7 kg wet, 5.7 kg dry
Launch date (UTC)
2022-01-13 (4 years ago)
Launch vehicle
FALCON 9
Launch site
Air Force Eastern Test Range (AFETR)
Object type
Payload
Rocket body
Debris
Shape & HBR
Box + 2 Pan, 0.1 m
Radar Cross Section
0.108 m², Small (<0.1 m²)

Expand to show TLE details & history

TLE from 9 months ago
0 FLOCK 4X 29
1 51011U 22002AD  24284.92531917  .18934856  25433-5  42815-3 0  9990
2 51011  97.3627   6.3476 0014099 292.1270  67.8535 16.45350730153115
Epoch: 2024-10-10T22:12Z
TLE epoch observation values (Epoch: 2024-10-10T22:12:27.576Z)
Latitude
-0.00004°
Longitude
13.22983°
Altitude
151.407 km
Speed
7.817 km/s
True Right ascension
00h 25m 23s
True Declination
0° 00' 00"
Sunlit
Object was in full shadow at epoch
Visualization orbit readout
Visualization observer readout
Orbital elements
Apogee altitude
157.608 km
Perigee altitude
139.205 km
Semi-major axis
6,526.543 km
Eccentricity
0.00141
Inclination
97.3627°
RAAN
6.3476°
Arg. of periapsis
292.127°
True anomaly
68.00324°
Mean anomaly
67.8535°
Eccentric anomaly
67.92836°
Mean motion
4.11641 °/min
Orbital period
87.45 mins
BSTAR
0.00042815
Loading maneuver chart data...
Loading SW <> Apogee altitude chart data...
|